[[{"header":{"parameterUnit":"m.s-1","parameterCategory":1,"la1":30.2991,"la2":30.254,"lo1":-89.0895,"lo2":-89.0444,"dy":0.0017,"dx":0.0017,"nx":28,"ny":28,"refTime":"2024-06-08T09:00:00:Z","depth":0,"parameterNumber":2,"parameterNumberName":"U-component_of_WINDS"},"data":[0,0,0,0,0,0,0,0,0,0,0,0,0,0,0,0,0,0,0,0,0,0,0,0,0,0,0,0,0,0,0,0,0,0,0,0,0,0,0,0,0,0,0,0,0,0,0,0,0,0,0,0,0,0,0,0,0,0,-2.7927,-2.7927,0,-2.7922,-2.7921,-2.7921,-2.7864,-2.7863,-2.7861,-2.786,-2.7855,-2.7856,-2.7857,0,0,0,0,0,0,0,0,0,0,0,0,0,-2.7888,-2.7889,-2.7927,-2.7927,-2.7927,-2.7922,-2.7921,-2.7921,-2.7864,-2.7863,-2.7861,-2.7859,-2.7854,-2.7856,-2.7857,0,0,0,0,0,0,0,0,0,0,0,0,0,-2.7896,-2.789,-2.7927,-2.7898,-2.7895,-2.7922,-2.7921,-2.7921,-2.7865,-2.7862,-2.786,-2.7858,-2.7854,-2.7856,-2.7857,-2.7912,0,0,-2.7863,-2.7864,0,0,0,0,0,0,0,0,-2.7896,-2.7898,-2.7902,-2.79,-2.7897,-2.7891,-2.7906,-2.7918,-2.7865,-2.7876,-2.786,-2.7857,-2.7869,-2.7869,-2.7873,-2.7911,-2.7911,-2.7863,-2.7864,-2.7865,-2.7865,0,0,0,0,0,0,0,-2.7895,-2.7898,-2.7925,-2.7902,-2.7899,-2.7885,-2.7884,-2.7908,-2.7885,-2.7875,-2.7871,-2.7871,-2.7867,-2.7871,-2.7872,-2.7911,-2.7863,-2.7865,-2.7866,-2.7866,-2.7995,-2.7997,0,0,0,0,0,0,-2.7899,-2.7898,-2.7925,-2.7925,-2.7891,-2.7887,-2.7886,-2.7895,-2.7884,-2.788,-2.7873,-2.7868,-2.7869,-2.787,-2.7872,-2.7935,-2.7865,-2.7867,-2.7868,-2.7992,-2.7995,-2.7998,0,0,0,0,0,0,-2.7898,-2.7902,-2.7925,-2.791,-2.7912,-2.789,-2.7901,-2.7896,-2.7901,-2.7882,-2.7878,-2.7882,-2.7867,-2.7869,-2.7902,-2.7934,-2.7867,-2.7869,-2.799,-2.7993,-2.7997,-2.8063,0,0,0,0,0,0,-2.7897,-2.7902,-2.7922,-2.7911,-2.7913,-2.7956,-2.7903,-2.7898,-2.7904,-2.7898,-2.789,-2.7886,-2.7866,-2.79,-2.7904,-2.7936,-2.787,-2.7987,-2.7991,-2.7995,-2.8058,-2.8068,-2.8077,0,0,0,0,0,-2.7896,-2.7941,-2.7924,-2.7927,-2.7938,-2.7958,-2.7959,-2.7935,-2.7907,-2.7927,-2.7915,-2.7886,-2.793,-2.7904,-2.7908,-2.7941,-2.7985,-2.799,-2.7995,-2.8053,-2.8066,-2.8077,0,0,0,0,0,0,-2.7957,-2.7939,-2.7919,-2.7962,-2.7962,-2.7948,-2.7973,-2.7949,-2.7957,-2.7951,-2.792,-2.7919,-2.7957,-2.7952,-2.7923,-2.7993,-2.7952,-2.7959,-2.7995,-2.8007,-2.8017,-2.8018,-2.7872,0,0,0,0,0,-2.7975,-2.7993,-2.7976,-2.8015,-2.8016,-2.7995,-2.8003,-2.7984,-2.7983,-2.7982,-2.7973,-2.7973,-2.7987,-2.7996,-2.8008,-2.8056,-2.8054,-2.8081,-2.8091,-2.8099,-2.8105,-2.8131,-2.8143,-2.8015,-2.8015,-2.8015,0,0,-2.8013,-2.8006,-2.8019,-2.8027,-2.8025,-2.8044,-2.7995,-2.8017,-2.8032,-2.7986,-2.8017,-2.801,-2.8008,-2.8049,-2.8067,-2.8046,-2.814,-2.8105,-2.8112,-2.8114,-2.8138,-2.815,-2.8161,-2.8019,-2.8018,-2.8017,0,0,-2.8093,-2.8088,-2.8121,-2.812,-2.8117,-2.8102,-2.811,-2.81,-2.8094,-2.8124,-2.8091,-2.8107,-2.8131,-2.8131,-2.8135,-2.8215,-2.8189,-2.8219,-2.827,-2.8296,-2.8306,-2.8315,-2.8345,-2.8356,-2.8225,-2.8225,-2.8225,0,-2.814,-2.8168,-2.8141,-2.8165,-2.8171,-2.813,-2.8163,-2.8163,-2.8164,-2.8169,-2.8145,-2.8175,-2.8171,-2.8212,-2.8232,-2.8235,-2.8244,-2.822,-2.8307,-2.8316,-2.8323,-2.8351,-2.8362,-2.8229,-2.8229,-2.8228,-2.8228,0,-2.8227,-2.8247,-2.8273,-2.8276,-2.8284,-2.8313,-2.829,-2.8302,-2.8282,-2.827,-2.8302,-2.8296,-2.8306,-2.8314,-2.8295,-2.8353,-2.834,-2.8312,-2.8271,-2.834,-2.8366,-2.8376,-2.8235,-2.8233,-2.8232,-2.8231,0,0,-2.8345,-2.8332,-2.8343,-2.8344,-2.8338,-2.8353,-2.838,-2.8389,-2.84,-2.8402,-2.8425,-2.8446,-2.8421,-2.8425,-2.8405,-2.8428,-2.8493,-2.8397,-2.8397,-2.8416,-2.8557,-2.8579,-2.8592,-2.8475,-2.8477,-2.8479,-2.8558,0,-2.8423,-2.8468,-2.8445,-2.8494,-2.8512,-2.8474,-2.8497,-2.8496,-2.8486,-2.85,-2.8488,-2.8505,-2.8469,-2.8471,-2.8492,-2.8481,-2.8521,-2.8474,-2.8497,-2.8498,-2.85,-2.8605,-2.8628,-2.8703,-2.8568,-2.8569,-2.8571,0,-2.8519,-2.8526,-2.8577,-2.8568,-2.8575,-2.8597,-2.8604,-2.8618,-2.8616,-2.8607,-2.8612,-2.8587,-2.8613,-2.8572,-2.8608,-2.8577,-2.8585,-2.8581,-2.8583,-2.8585,-2.8539,-2.8611,-2.8727,-2.8739,-2.8586,-2.8585,-2.8584,0,-2.8602,-2.8623,-2.8657,-2.8658,-2.8649,-2.8665,-2.8662,-2.8658,-2.8666,-2.8672,-2.8677,-2.8686,-2.8692,-2.87,-2.8678,-2.865,-2.8718,-2.8674,-2.8712,-2.8713,-2.8729,-2.8729,-2.8849,-2.8732,-2.8732,-2.8732,-2.8732,0,-2.8691,-2.8724,-2.8694,-2.8714,-2.875,-2.8723,-2.8759,-2.8752,-2.8749,-2.8768,-2.8734,-2.8753,-2.8723,-2.8739,-2.8723,-2.8756,-2.8758,-2.8752,-2.8748,-2.8756,-2.8757,-2.8761,-2.8756,-2.8735,-2.8734,-2.8733,-2.8733,0,-2.879,-2.8771,-2.8805,-2.8793,-2.8791,-2.8818,-2.8808,-2.8827,-2.8814,-2.8838,-2.8842,-2.8823,-2.8839,-2.8819,-2.8834,-2.8823,-2.8868,-2.8855,-2.8869,-2.8866,-2.8905,-2.8902,-2.9033,-2.9049,-2.8922,-2.8923,-2.8924,0,-2.8849,-2.8873,-2.8864,-2.8875,-2.8873,-2.889,-2.8898,-2.8872,-2.8881,-2.8881,-2.8901,-2.8914,-2.8924,-2.8953,-2.894,-2.8952,-2.8939,-2.8984,-2.8941,-2.8949,-2.8942,-2.8941,-2.8944,-2.8994,-2.8995,-2.8997,-2.8998,0,-2.8956,-2.8946,-2.8958,-2.8967,-2.8977,-2.8983,-2.8987,-2.8997,-2.897,-2.8982,-2.8999,-2.9007,-2.9022,-2.9037,-2.9045,-2.9041,-2.9016,-2.9011,-2.9021,-2.903,-2.9038,-2.9035,-2.8895,-2.9009,-2.9008,-2.9007,-2.9006,-2.9006,-2.9038,-2.9058,-2.9055,-2.907,-2.907,-2.9074,-2.9092,-2.9081,-2.9095,-2.9105,-2.9089,-2.911,-2.9108,-2.9116,-2.9116,-2.9133,-2.9113,-2.9127,-2.913,-2.9135,-2.9141,-2.9034,-2.9134,-2.9133,-2.9133,-2.9133,-2.9133,0,-2.9144,-2.914,-2.9154,-2.9161,-2.9173,-2.9147,-2.9149,-2.9161,-2.9181,-2.9181,-2.9191,-2.9211,-2.9225,-2.9214,-2.9225,-2.9241,-2.923,-2.9245,-2.9244,-2.9244,-2.9157,-2.9148,-2.9254,-2.9254,-2.9254,-2.9254,-2.9254,-2.9254,-2.9201,-2.9235,-2.9224,-2.9257,-2.9253,-2.9274,-2.9278,-2.9282,-2.9282,-2.9305,-2.9317,-2.9309,-2.9305,-2.9316,-2.9328,-2.9324,-2.9331,-2.9351,-2.9343,-2.9262,-2.925,-2.9239,-2.9231,-2.9352,-2.9352,-2.9429,-2.943,-2.943]},{"header":{"parameterUnit":"m.s-1","parameterCategory":1,"la1":30.2991,"la2":30.254,"lo1":-89.0895,"lo2":-89.0444,"dy":0.0017,"dx":0.0017,"nx":28,"ny":28,"refTime":"2024-06-08T09:00:00:Z","depth":0,"parameterNumber":3,"parameterNumberName":"V-component_of_WINDS"},"data":[0,0,0,0,0,0,0,0,0,0,0,0,0,0,0,0,0,0,0,0,0,0,0,0,0,0,0,0,0,0,0,0,0,0,0,0,0,0,0,0,0,0,0,0,0,0,0,0,0,0,0,0,0,0,0,0,0,0,-1.0304,-1.0304,0,-1.032,-1.0321,-1.0321,-1.0296,-1.0296,-1.0295,-1.0294,-1.031,-1.0312,-1.0313,0,0,0,0,0,0,0,0,0,0,0,0,0,-1.0251,-1.0252,-1.0304,-1.0304,-1.0305,-1.032,-1.0321,-1.0321,-1.0297,-1.0296,-1.0295,-1.0294,-1.031,-1.0311,-1.0313,0,0,0,0,0,0,0,0,0,0,0,0,0,-1.0272,-1.0253,-1.0304,-1.0294,-1.0294,-1.032,-1.0321,-1.0321,-1.0297,-1.0296,-1.0294,-1.0293,-1.0309,-1.0311,-1.0313,-1.035,0,0,-1.0319,-1.0319,0,0,0,0,0,0,0,0,-1.027,-1.0274,-1.0296,-1.0295,-1.0294,-1.0305,-1.0308,-1.0331,-1.0297,-1.0296,-1.0294,-1.0292,-1.031,-1.0311,-1.0317,-1.0351,-1.0351,-1.0319,-1.032,-1.0321,-1.0321,0,0,0,0,0,0,0,-1.0269,-1.0273,-1.0311,-1.0296,-1.0295,-1.0289,-1.029,-1.0312,-1.031,-1.0296,-1.0294,-1.0296,-1.0309,-1.0315,-1.0317,-1.0352,-1.0319,-1.032,-1.0322,-1.0322,-1.0415,-1.0416,0,0,0,0,0,0,-1.0269,-1.0272,-1.031,-1.0311,-1.0279,-1.0291,-1.0293,-1.0303,-1.0309,-1.0309,-1.0297,-1.0295,-1.0313,-1.0315,-1.0318,-1.0361,-1.0321,-1.0322,-1.0323,-1.0414,-1.0415,-1.0417,0,0,0,0,0,0,-1.0268,-1.0273,-1.0309,-1.0291,-1.0295,-1.0293,-1.0305,-1.0304,-1.031,-1.031,-1.031,-1.0304,-1.0312,-1.0315,-1.0342,-1.0361,-1.0323,-1.0325,-1.0412,-1.0414,-1.0416,-1.0448,0,0,0,0,0,0,-1.0266,-1.0272,-1.0287,-1.0291,-1.0296,-1.0334,-1.0306,-1.0305,-1.0314,-1.0311,-1.0317,-1.0317,-1.0311,-1.0339,-1.0344,-1.0363,-1.0326,-1.041,-1.0413,-1.0415,-1.0445,-1.0451,-1.0455,0,0,0,0,0,-1.0265,-1.0295,-1.0288,-1.0292,-1.0314,-1.0335,-1.0338,-1.0331,-1.0315,-1.033,-1.0329,-1.0317,-1.0358,-1.0342,-1.0347,-1.0367,-1.0409,-1.0412,-1.0415,-1.0443,-1.0449,-1.0455,0,0,0,0,0,0,-1.0293,-1.0296,-1.0287,-1.032,-1.0328,-1.0331,-1.0349,-1.0338,-1.035,-1.0347,-1.0338,-1.0339,-1.0368,-1.037,-1.0352,-1.0403,-1.0381,-1.0385,-1.04,-1.0407,-1.0412,-1.0411,-1.0328,0,0,0,0,0,-1.0303,-1.032,-1.0321,-1.035,-1.0354,-1.0351,-1.036,-1.0353,-1.0361,-1.0363,-1.0365,-1.0373,-1.0387,-1.0397,-1.041,-1.0445,-1.0446,-1.0461,-1.0466,-1.047,-1.0474,-1.0492,-1.0499,-1.0427,-1.0427,-1.0427,0,0,-1.0324,-1.0328,-1.0339,-1.0356,-1.0361,-1.0378,-1.0354,-1.0373,-1.0386,-1.0366,-1.0392,-1.0393,-1.04,-1.0431,-1.0444,-1.0434,-1.0494,-1.0474,-1.0478,-1.0479,-1.0496,-1.0503,-1.0509,-1.0429,-1.0428,-1.0428,0,0,-1.0372,-1.0376,-1.04,-1.0405,-1.0413,-1.041,-1.0416,-1.0421,-1.0421,-1.0446,-1.0432,-1.0446,-1.0472,-1.0477,-1.0483,-1.0531,-1.052,-1.0536,-1.0564,-1.0581,-1.0587,-1.0592,-1.0609,-1.0615,-1.054,-1.054,-1.054,0,-1.0397,-1.0423,-1.0414,-1.0434,-1.0442,-1.0425,-1.0449,-1.0454,-1.0466,-1.0472,-1.0459,-1.049,-1.0494,-1.0525,-1.0537,-1.0542,-1.0548,-1.0536,-1.0586,-1.0591,-1.0596,-1.0612,-1.0618,-1.0542,-1.0541,-1.0541,-1.0541,0,-1.0453,-1.0471,-1.049,-1.0501,-1.0511,-1.0533,-1.0527,-1.0538,-1.0531,-1.0529,-1.0554,-1.0558,-1.0571,-1.0578,-1.0572,-1.0608,-1.0601,-1.0588,-1.0566,-1.0605,-1.062,-1.0626,-1.0544,-1.0544,-1.0543,-1.0543,0,0,-1.052,-1.0525,-1.0532,-1.0537,-1.0543,-1.0557,-1.0578,-1.0591,-1.06,-1.0608,-1.0625,-1.0647,-1.0634,-1.0641,-1.0634,-1.065,-1.0687,-1.0634,-1.0634,-1.0644,-1.0727,-1.0738,-1.0745,-1.0679,-1.068,-1.0681,-1.0727,0,-1.0567,-1.0603,-1.0596,-1.0631,-1.0647,-1.0631,-1.0649,-1.0654,-1.0653,-1.0666,-1.0665,-1.068,-1.0662,-1.0666,-1.068,-1.068,-1.0704,-1.0676,-1.0695,-1.0696,-1.0694,-1.0753,-1.0764,-1.0807,-1.0733,-1.0734,-1.0734,0,-1.0627,-1.0637,-1.0674,-1.0677,-1.0684,-1.07,-1.0711,-1.0724,-1.073,-1.0728,-1.0735,-1.0725,-1.0745,-1.0723,-1.075,-1.0732,-1.0739,-1.0739,-1.0741,-1.0743,-1.0718,-1.0756,-1.0821,-1.0827,-1.0743,-1.0743,-1.0742,0,-1.0672,-1.0695,-1.072,-1.0724,-1.0728,-1.074,-1.0742,-1.0747,-1.0755,-1.0764,-1.0769,-1.0781,-1.0787,-1.0796,-1.079,-1.0774,-1.0818,-1.0795,-1.0817,-1.0817,-1.0827,-1.0827,-1.0894,-1.0832,-1.0831,-1.0831,-1.0831,0,-1.0726,-1.0749,-1.074,-1.0755,-1.0781,-1.0771,-1.0797,-1.0797,-1.0801,-1.0815,-1.0801,-1.0816,-1.0806,-1.0819,-1.0814,-1.0837,-1.084,-1.0839,-1.0837,-1.084,-1.0841,-1.0845,-1.0842,-1.0833,-1.0833,-1.0832,-1.0832,0,-1.078,-1.0775,-1.0801,-1.0803,-1.0804,-1.0822,-1.0823,-1.0837,-1.0834,-1.0853,-1.0857,-1.0853,-1.0868,-1.0862,-1.0877,-1.0874,-1.0904,-1.0898,-1.0902,-1.09,-1.0922,-1.0921,-1.0995,-1.1004,-1.0936,-1.0936,-1.0937,0,-1.0815,-1.0833,-1.0836,-1.0845,-1.0848,-1.0862,-1.087,-1.0861,-1.087,-1.0877,-1.089,-1.0903,-1.0914,-1.0938,-1.0936,-1.0948,-1.0942,-1.0967,-1.0944,-1.0946,-1.0943,-1.0942,-1.0943,-1.0972,-1.0973,-1.0974,-1.0974,0,-1.0877,-1.0874,-1.0886,-1.0897,-1.0906,-1.0915,-1.0922,-1.093,-1.0921,-1.0931,-1.0946,-1.0954,-1.0969,-1.0983,-1.0993,-1.0995,-1.0983,-1.0982,-1.0987,-1.0991,-1.0992,-1.0992,-1.0915,-1.098,-1.098,-1.0979,-1.0979,-1.0979,-1.0923,-1.0938,-1.0942,-1.0955,-1.0959,-1.0966,-1.0979,-1.0978,-1.099,-1.1002,-1.0995,-1.1012,-1.1016,-1.1029,-1.1032,-1.1045,-1.1035,-1.1043,-1.1046,-1.1048,-1.1051,-1.099,-1.1047,-1.1047,-1.1047,-1.1046,-1.1046,0,-1.0984,-1.0986,-1.0999,-1.1008,-1.1019,-1.1007,-1.1013,-1.1023,-1.1038,-1.1043,-1.1053,-1.107,-1.1082,-1.1081,-1.1092,-1.1103,-1.1098,-1.1106,-1.1106,-1.1106,-1.1059,-1.1053,-1.111,-1.111,-1.111,-1.111,-1.111,-1.111,-1.1018,-1.1041,-1.1038,-1.1063,-1.1064,-1.1081,-1.1086,-1.1092,-1.1095,-1.1114,-1.1125,-1.1124,-1.1126,-1.1137,-1.1148,-1.1147,-1.1152,-1.1162,-1.116,-1.1116,-1.111,-1.1104,-1.1098,-1.1164,-1.1164,-1.1206,-1.1206,-1.1207]}]]